Temperature
26 24 24 25 25 26 26 25 25 25 25 25 24 24 23 22 22 22 22 22 22 23 23 23 23 22 22 21 21 20 20 20 20 19 19 19 19 18 18 18 18 18 18 18
24 24 25 25 25 25 25 25 25 25 25 25 24 24 23 22 22 22 22 22 23 23 23 23 23 22 22 22 21 21 21 20 20 20 19 19 19 19 18 18 18 18 18 18
25 25 26 26 26 26 26 25 25 25 25 24 25 24 23 23 23 23 23 23 23 23 24 23 23 23 22 22 22 21 21 20 20 20 19 19 19 19 19 18 18 18 18 18
25 25 26 27 26 26 25 26 26 25 24 23 24 23 23 22 22 22 23 23 23 24 24 24 24 23 23 23 22 22 21 21 20 20 20 19 19 19 19 19 18 18 18 18
25 26 26 27 27 26 26 25 25 24 23 22 23 23 22 22 22 22 23 23 24 24 24 24 24 24 24 23 22 22 21 21 21 20 20 20 19 19 19 19 19 18 18 18
24 25 26 27 27 26 26 24 22 20 20 22 23 23 23 21 22 22 23 24 24 25 25 25 25 24 24 23 23 22 22 21 21 21 20 20 20 19 19 19 19 19 18 18
25 25 26 26 27 26 24 22 22 22 21 21 22 22 21 23 22 23 23 24 25 25 25 25 24 24 24 24 23 23 22 22 21 21 21 20 20 20 19 19 19 19 19 18
23 23 25 26 26 25 24 22 22 23 22 21 22 22 22 23 23 24 25 25 25 25 25 25 25 25 25 24 24 23 23 22 22 21 21 21 20 20 20 19 19 19 19 19
21 22 24 25 26 25 23 22 21 20 21 21 21 21 22 23 22 22 23 24 24 25 25 25 25 25 25 25 24 24 23 23 22 22 21 21 21 20 20 19 19 19 19 18
21 23 23 24 25 24 23 20 18 19 20 22 22 22 22 23 22 22 21 22 24 25 25 26 25 25 25 25 24 24 23 23 23 22 22 21 21 20 20 19 19 19 19 18
20 22 23 23 24 24 22 21 18 17 19 20 21 21 22 21 21 21 21 23 24 24 25 25 25 25 25 25 24 24 23 23 22 22 22 21 21 20 20 19 19 19 19 18
19 18 20 21 22 22 23 21 18 21 20 18 19 21 22 20 20 20 21 22 23 24 25 25 25 25 24 24 24 24 23 23 23 22 22 21 21 20 20 20 19 19 19 18
18 18 20 21 21 21 22 21 19 17 16 16 19 21 21 20 20 21 21 22 23 23 24 24 24 24 24 24 24 24 23 23 23 22 22 21 21 20 20 20 19 19 19 18
18 16 18 20 20 20 21 21 19 19 18 18 19 21 21 20 20 20 21 22 22 23 23 24 24 24 24 24 24 24 23 23 22 22 22 21 21 21 20 20 19 19 19 19
17 17 18 18 19 20 21 21 20 20 19 19 20 19 20 19 19 20 21 21 21 22 22 23 23 24 24 24 24 24 23 23 22 22 22 21 21 21 20 20 19 19 19 18
14 17 18 19 19 20 20 21 20 20 20 19 20 20 19 19 20 20 20 20 21 21 22 22 23 24 24 24 24 24 23 23 22 22 22 21 21 20 20 20 19 19 19 18
13 15 16 17 18 20 19 20 20 20 19 19 19 19 18 18 18 19 20 21 21 22 22 23 23 23 24 24 23 23 23 23 22 22 21 21 20 20 20 20 19 19 19 18
13 13 13 15 18 19 19 19 19 19 19 18 18 18 18 18 19 20 21 21 21 22 22 22 23 23 23 23 23 23 22 22 22 21 21 21 20 20 20 19 19 19 18 18
12 13 13 13 16 17 18 19 19 19 18 17 17 17 17 18 19 20 21 21 21 21 21 22 22 23 23 23 22 22 22 22 21 21 21 21 20 20 19 19 19 18 18 18
11 11 12 13 16 16 17 18 18 18 18 17 16 16 16 16 17 18 20 20 20 20 21 21 22 22 22 22 22 21 21 21 21 21 20 20 20 19 19 19 18 18 17 17
13 12 13 13 15 15 16 17 18 18 17 16 16 16 16 16 17 18 19 19 19 20 20 21 21 21 21 22 22 21 21 20 20 20 20 19 19 19 18 18 18 17 17 16
13 12 12 12 14 15 16 16 15 15 16 16 16 16 16 16 17 17 18 18 19 19 19 19 20 20 20 21 21 20 20 20 19 19 19 18 18 18 17 17 17 17 16 16
11 12 11 12 13 14 14 15 15 15 15 16 16 16 16 16 16 17 17 18 18 18 19 19 19 19 19 20 20 19 19 19 19 18 18 18 18 17 17 17 16 16 16 16
11 11 10 11 12 13 14 15 15 15 15 16 16 16 16 16 16 16 16 17 17 17 18 18 18 18 18 18 18 18 18 18 18 17 17 17 17 17 16 16 15 15 15 15
11 11 10 11 12 13 14 15 15 15 15 15 15 15 15 15 15 15 16 16 16 16 16 17 17 17 18 17 17 17 17 17 17 17 17 16 16 16 16 15 15 15 15 15
10 10 11 11 12 12 13 14 14 14 14 14 14 14 15 15 15 15 15 15 15 16 16 16 16 16 16 16 16 17 17 16 16 16 16 16 15 15 15 15 14 14 14 14
Wind_Speed
4 5 2 6 7 5 5 4 4 5 4 5 6 6 6 10 11 11 10 10 11 12 9 7 8 8 8 7 7 8 8 6 5 3 3 3 2 2 2 3 5 6 7 8
5 2 7 5 5 4 3 2 3 3 0 3 2 4 4 11 13 13 13 12 12 9 7 7 7 8 9 9 9 8 8 7 6 4 3 3 2 2 2 2 3 5 6 7
6 6 3 3 2 2 2 5 5 3 2 4 2 4 2 5 7 8 10 10 10 12 11 10 9 9 9 10 10 10 9 8 7 6 3 2 2 1 0 1 2 3 5 6
5 5 2 2 3 5 4 5 5 3 4 1 2 3 6 5 7 11 12 12 13 12 11 10 10 10 11 11 10 9 8 8 7 6 5 5 4 3 3 2 2 2 3 5
5 3 3 3 5 6 5 1 3 3 4 2 2 2 8 1 7 14 15 15 14 13 13 13 13 12 11 10 9 9 8 7 7 7 7 6 4 3 2 1 2 1 2 3
6 3 4 5 3 4 4 7 8 7 5 1 3 3 7 6 9 9 12 15 14 13 13 12 11 9 8 8 8 8 9 8 7 7 7 7 7 5 4 3 3 2 2 2
4 4 3 3 2 2 6 7 5 5 4 6 3 3 9 8 8 10 11 14 13 12 12 12 12 11 10 10 10 9 10 9 8 8 8 8 8 7 6 5 4 3 2 2
3 6 4 3 6 6 5 9 8 6 6 5 2 6 8 7 7 6 7 8 9 10 11 12 13 12 11 11 11 10 10 9 8 9 8 7 7 5 5 5 5 4 4 3
7 7 5 3 2 8 6 4 7 7 4 1 6 8 10 6 7 4 1 5 8 10 11 11 11 11 11 11 11 11 10 9 9 9 8 7 7 6 6 5 4 3 3 3
8 4 5 4 4 5 5 9 7 7 7 4 5 5 5 9 8 5 2 5 7 8 9 9 9 9 9 9 8 8 9 9 8 8 8 7 7 6 5 4 4 4 4 3
5 5 4 3 3 4 4 5 6 5 6 7 4 7 5 7 6 5 5 5 6 8 9 9 8 8 8 7 7 8 8 7 6 7 7 6 5 5 5 4 4 4 4 3
3 5 3 5 4 2 4 7 8 5 4 5 5 7 5 5 5 4 4 2 2 5 6 7 7 7 7 8 8 8 8 7 7 7 6 6 5 5 5 5 4 4 4 3
3 6 2 5 5 4 2 3 5 6 6 6 6 7 4 5 4 3 2 1 2 3 4 5 6 7 7 8 8 7 7 8 7 7 7 6 6 6 6 6 5 4 3 3
5 4 6 8 7 3 2 1 4 6 5 5 7 7 8 7 6 5 3 1 2 3 4 5 5 6 6 7 7 7 7 7 7 7 8 8 8 7 7 6 6 5 5 5
5 3 2 4 4 3 3 3 4 5 8 8 8 7 8 7 6 5 3 1 1 2 3 5 5 5 5 6 6 7 7 6 6 7 8 9 8 7 7 7 7 6 5 5
4 3 1 2 2 2 3 4 4 4 4 5 3 6 7 5 3 3 3 2 3 3 4 4 4 5 6 6 6 5 5 6 7 8 8 7 7 7 8 7 7 6 5 4
2 3 3 3 3 2 3 4 4 3 2 4 5 6 4 4 4 5 5 4 5 5 5 5 6 7 7 7 6 6 5 4 5 6 6 6 7 7 7 7 7 6 6 5
5 4 3 2 1 6 7 2 2 3 1 1 1 3 4 6 7 5 4 4 4 4 4 5 5 5 5 5 5 5 5 5 6 6 6 6 6 6 6 6 6 6 5 5
5 7 4 4 3 4 5 1 1 1 1 1 1 4 5 5 4 3 2 2 4 5 5 5 5 5 4 4 5 5 4 5 5 6 6 6 6 6 7 7 6 5 5 4
5 4 5 4 4 7 6 4 4 2 3 3 3 3 4 4 2 5 5 5 5 4 3 3 2 2 3 4 5 5 5 5 6 5 5 5 6 6 7 7 7 5 5 5
3 3 3 4 4 6 5 6 3 3 5 6 5 4 3 3 6 7 6 5 3 3 3 2 1 2 3 3 6 6 6 6 6 5 5 6 6 6 5 5 5 6 6 5
4 3 3 4 4 6 4 3 2 4 5 5 5 5 5 6 7 6 5 3 2 2 2 1 1 1 1 3 5 6 6 5 4 4 4 5 5 5 5 6 5 5 6 5
3 5 5 6 6 4 2 2 4 4 4 5 5 6 5 6 6 5 4 3 3 2 1 1 1 1 0 2 4 5 3 4 5 5 4 4 4 4 5 6 6 5 5 5
2 1 1 2 5 5 5 4 4 3 4 6 6 6 5 5 5 5 4 3 3 3 2 1 1 1 0 0 2 4 4 5 6 5 4 4 4 4 4 4 5 5 5 5
4 1 1 4 6 6 5 4 4 4 4 4 5 5 5 4 5 4 3 3 3 3 2 1 1 2 2 1 1 3 4 6 6 5 5 5 4 5 4 4 2 3 3 5
4 5 4 6 7 5 7 6 5 5 5 5 5 6 5 4 3 3 2 3 3 3 2 1 0 1 1 2 1 2 4 6 6 5 5 5 5 4 5 5 3 4 3 3
Wind_Direction
46 76 188 215 195 193 185 197 245 252 212 176 216 233 205 184 191 199 204 206 211 218 218 199 190 183 175 177 181 186 188 186 167 163 174 180 203 214 217 220 222 217 214 209
43 257 230 209 190 179 178 219 252 291 166 161 224 261 218 192 202 203 204 209 213 217 209 198 191 184 184 186 189 191 195 191 184 180 171 169 171 194 212 219 224 219 216 210
192 234 210 160 178 180 215 201 217 212 41 41 75 325 250 217 212 216 214 213 213 212 208 201 196 194 190 193 194 198 198 195 189 177 147 126 100 71 177 229 231 221 218 215
225 250 197 190 221 167 249 227 195 165 117 299 105 270 277 222 219 223 221 215 215 212 205 200 198 197 199 202 195 194 191 191 187 172 172 174 186 204 215 209 224 234 220 219
237 216 182 212 222 176 213 126 120 116 122 67 32 172 285 241 233 234 225 218 215 209 201 200 201 201 201 196 191 191 185 189 185 180 184 183 199 209 201 190 223 232 230 224
238 250 213 210 208 160 129 70 55 51 70 342 235 177 274 234 225 238 225 219 211 204 200 199 196 188 191 187 188 186 185 194 187 185 186 191 203 202 195 206 217 222 220 228
302 297 262 183 123 46 98 90 34 4 9 252 253 198 249 257 244 234 226 217 208 198 194 193 189 188 191 190 191 189 189 197 192 189 193 199 205 200 202 208 210 209 212 226
193 278 258 202 180 182 167 141 158 193 216 268 296 231 253 275 284 260 226 206 193 191 193 194 193 192 194 195 191 188 192 198 193 194 202 200 201 201 208 207 204 207 213 224
177 246 288 259 206 146 139 165 159 139 155 234 283 289 304 318 337 339 162 165 184 191 190 191 190 187 190 193 192 189 190 195 196 198 197 198 199 200 205 205 201 207 216 221
158 222 284 299 75 42 128 141 105 125 150 217 283 288 278 304 314 316 253 191 194 187 184 184 186 187 188 190 187 184 188 195 198 196 199 203 198 198 195 189 197 203 210 208
138 171 292 16 158 182 102 99 105 116 149 159 221 268 243 252 271 270 253 215 193 186 187 184 181 179 175 172 172 179 185 184 191 198 197 197 193 187 182 188 201 202 202 195
123 132 239 263 267 221 152 157 145 151 200 171 172 256 278 264 268 257 253 238 195 181 180 173 168 166 169 173 176 181 184 186 194 192 190 194 187 175 179 189 195 191 195 195
115 113 84 336 342 5 85 138 139 124 120 151 169 252 314 336 323 302 273 238 171 156 152 150 154 167 177 182 184 183 186 194 189 177 180 187 185 182 188 190 185 184 187 186
120 109 165 198 218 227 249 208 152 128 148 189 212 239 300 317 313 305 291 260 164 153 156 156 166 181 185 186 187 183 192 194 182 177 182 193 192 184 188 183 172 178 188 189
99 134 197 226 236 210 222 232 195 188 185 185 216 222 257 269 269 271 266 238 137 145 163 179 187 189 188 191 193 190 184 180 181 185 193 200 193 182 179 178 177 180 183 185
70 135 146 267 274 227 256 264 214 213 194 195 203 248 271 283 295 286 258 207 196 200 203 203 200 197 197 199 199 202 196 182 180 191 203 197 186 183 182 182 177 172 172 168
88 119 125 240 297 16 260 235 196 190 193 169 200 248 298 313 290 258 243 222 218 218 211 204 209 210 207 206 200 195 197 182 178 189 195 190 186 185 185 183 175 177 177 168
147 127 138 167 102 215 235 273 178 152 127 156 228 281 270 268 276 260 232 218 241 241 230 223 219 225 218 198 188 180 170 169 179 184 185 181 183 186 181 176 178 177 167 166
159 143 132 136 178 258 287 292 117 147 234 6 321 318 327 335 345 319 292 277 260 247 235 229 222 218 209 189 175 161 167 176 183 187 186 180 179 184 184 183 183 175 159 161
75 100 123 137 168 219 240 292 304 161 237 330 347 321 326 7 349 283 311 319 303 287 263 240 231 204 194 180 155 158 175 181 197 193 187 176 178 184 187 183 178 169 160 165
45 54 129 168 203 251 269 306 9 150 250 304 303 287 287 256 245 265 291 301 301 297 283 246 201 213 208 178 157 165 177 195 196 172 162 165 169 173 177 173 167 158 153 154
171 156 180 157 188 243 314 32 128 239 273 286 285 275 280 287 281 274 272 276 294 317 312 268 178 212 219 176 162 174 188 185 151 138 147 147 149 157 157 158 161 157 156 162
192 192 192 193 214 244 281 261 265 250 272 280 278 287 287 290 285 285 283 294 298 296 282 267 205 183 193 168 165 179 182 147 134 130 143 143 139 143 148 155 158 159 162 165
293 134 151 280 278 287 292 297 296 278 272 284 283 284 277 281 282 288 294 299 305 297 268 251 202 172 170 260 179 165 155 145 140 141 142 150 156 155 157 164 164 168 174 177
240 219 214 269 283 308 302 302 301 307 315 317 315 304 287 286 291 292 300 306 312 314 312 266 203 193 178 190 203 151 145 144 146 149 156 166 170 165 160 148 147 170 184 191
217 197 197 238 245 245 271 284 294 296 302 309 318 322 318 301 290 306 314 324 325 315 306 303 175 190 188 180 193 163 146 149 156 162 168 172 174 168 162 158 137 73 94 108
Height
1495 1502 1509 1506 1505 1506 1510 1515 1518 1512 1505 1509 1512 1511 1509 1511 1514 1516 1517 1519 1520 1521 1524 1527 1530 1532 1534 1536 1538 1539 1541 1542 1543 1545 1546 1547 1548 1550 1551 1552 1553 1554 1555 1556
1502 1506 1499 1498 1501 1504 1508 1514 1515 1510 1505 1508 1512 1512 1508 1508 1509 1511 1513 1515 1517 1520 1522 1525 1527 1530 1532 1534 1536 1538 1539 1541 1542 1543 1545 1546 1547 1548 1549 1550 1551 1551 1553 1554
1502 1499 1494 1497 1501 1505 1508 1512 1511 1512 1509 1509 1512 1516 1511 1508 1508 1510 1511 1513 1515 1517 1519 1522 1525 1527 1529 1531 1533 1536 1538 1539 1541 1542 1544 1545 1546 1546 1547 1548 1549 1550 1551 1552
1497 1494 1494 1497 1500 1501 1510 1501 1503 1507 1517 1525 1519 1534 1515 1509 1508 1506 1507 1508 1510 1513 1516 1519 1522 1524 1526 1529 1531 1533 1536 1538 1539 1541 1542 1543 1543 1544 1545 1546 1547 1548 1549 1551
1496 1492 1493 1497 1495 1496 1500 1497 1502 1508 1517 1527 1524 1532 1522 1510 1509 1503 1500 1502 1504 1508 1511 1514 1518 1521 1524 1527 1529 1531 1533 1535 1537 1539 1540 1541 1542 1543 1544 1545 1546 1547 1548 1549
1491 1489 1489 1490 1489 1491 1495 1502 1510 1519 1527 1538 1528 1533 1527 1512 1503 1495 1493 1495 1498 1502 1506 1510 1514 1518 1521 1524 1526 1529 1531 1533 1535 1537 1538 1539 1540 1541 1543 1544 1545 1546 1547 1548
1496 1490 1486 1486 1491 1493 1498 1516 1538 1540 1549 1544 1527 1529 1523 1497 1492 1489 1488 1489 1493 1498 1502 1506 1510 1514 1517 1520 1523 1526 1528 1530 1532 1534 1536 1537 1539 1540 1541 1542 1543 1544 1545 1546
1507 1507 1489 1485 1489 1496 1500 1511 1537 1548 1550 1542 1529 1529 1508 1490 1487 1484 1484 1486 1490 1494 1497 1501 1506 1510 1514 1517 1520 1523 1525 1527 1530 1532 1534 1535 1537 1538 1539 1540 1541 1542 1543 1544
1508 1506 1487 1483 1483 1488 1501 1509 1511 1531 1537 1541 1534 1521 1501 1487 1485 1483 1483 1485 1487 1490 1493 1498 1502 1506 1510 1514 1517 1520 1523 1525 1527 1529 1531 1533 1535 1536 1537 1538 1539 1540 1541 1542
1495 1502 1490 1485 1484 1488 1492 1503 1519 1532 1546 1547 1534 1527 1518 1497 1491 1487 1485 1484 1485 1487 1491 1495 1499 1503 1508 1511 1514 1518 1520 1523 1525 1527 1529 1531 1532 1534 1536 1537 1538 1539 1539 1540
1491 1500 1496 1491 1492 1495 1498 1506 1516 1529 1531 1544 1545 1531 1500 1496 1490 1487 1484 1483 1483 1485 1488 1492 1497 1501 1505 1509 1512 1515 1517 1519 1522 1525 1527 1529 1530 1532 1534 1535 1536 1537 1537 1538
1492 1502 1508 1498 1489 1487 1490 1499 1510 1522 1529 1534 1537 1526 1490 1490 1487 1485 1483 1482 1483 1484 1487 1491 1495 1499 1503 1506 1509 1512 1514 1517 1519 1522 1524 1525 1527 1529 1530 1532 1533 1534 1535 1536
1492 1503 1514 1509 1504 1495 1494 1497 1502 1512 1525 1535 1534 1519 1489 1488 1485 1484 1483 1482 1483 1484 1487 1490 1493 1497 1500 1503 1506 1509 1512 1514 1517 1518 1521 1523 1524 1526 1527 1528 1529 1531 1532 1533
1488 1502 1509 1514 1509 1501 1498 1497 1501 1507 1521 1527 1521 1508 1495 1490 1487 1484 1482 1482 1483 1484 1486 1488 1491 1494 1497 1500 1502 1505 1509 1511 1513 1515 1517 1519 1521 1522 1524 1526 1527 1528 1529 1529
1489 1502 1501 1500 1496 1495 1495 1495 1497 1500 1504 1510 1507 1505 1495 1489 1486 1483 1482 1482 1482 1483 1485 1486 1488 1491 1494 1496 1499 1501 1504 1506 1509 1512 1514 1516 1518 1519 1520 1522 1523 1525 1526 1526
1493 1500 1500 1499 1495 1495 1495 1492 1493 1494 1496 1498 1498 1498 1488 1486 1485 1483 1481 1481 1480 1481 1482 1484 1486 1488 1491 1493 1495 1497 1500 1502 1505 1507 1510 1512 1514 1515 1516 1518 1519 1521 1522 1523
1498 1501 1506 1507 1500 1495 1501 1492 1491 1491 1490 1492 1497 1493 1487 1485 1482 1480 1479 1478 1478 1479 1480 1481 1483 1485 1487 1489 1492 1494 1496 1499 1501 1503 1506 1508 1510 1511 1513 1514 1515 1517 1518 1519
1498 1503 1510 1511 1504 1511 1498 1485 1485 1487 1489 1488 1488 1487 1485 1482 1479 1478 1477 1477 1477 1478 1478 1479 1480 1482 1484 1486 1488 1491 1493 1495 1497 1499 1501 1503 1505 1507 1509 1511 1512 1513 1515 1516
1493 1500 1510 1515 1513 1506 1493 1485 1486 1488 1490 1487 1486 1485 1483 1481 1478 1476 1476 1477 1477 1476 1476 1477 1478 1479 1481 1482 1485 1487 1490 1491 1493 1495 1496 1498 1500 1503 1505 1507 1509 1510 1512 1513
1494 1497 1507 1512 1511 1511 1495 1484 1482 1485 1491 1485 1484 1484 1483 1482 1484 1478 1475 1475 1475 1475 1475 1475 1475 1477 1478 1479 1481 1484 1485 1487 1489 1490 1492 1494 1497 1499 1501 1503 1506 1507 1508 1509
1500 1503 1507 1509 1508 1501 1489 1483 1481 1495 1493 1485 1483 1482 1482 1482 1480 1476 1474 1473 1472 1472 1472 1472 1472 1473 1474 1476 1477 1479 1481 1483 1485 1487 1489 1491 1493 1495 1497 1500 1502 1504 1504 1506
1501 1504 1507 1509 1508 1503 1486 1485 1489 1490 1484 1482 1480 1480 1478 1477 1475 1472 1470 1470 1469 1468 1469 1469 1469 1469 1471 1472 1474 1476 1478 1480 1482 1483 1485 1487 1490 1491 1493 1496 1498 1500 1501 1502
1498 1498 1499 1500 1498 1489 1486 1486 1485 1484 1482 1480 1478 1476 1475 1473 1471 1469 1468 1467 1467 1466 1466 1466 1466 1466 1467 1469 1471 1473 1474 1477 1479 1481 1482 1484 1486 1487 1489 1492 1494 1496 1497 1498
1495 1493 1495 1494 1488 1486 1484 1483 1482 1481 1480 1478 1476 1474 1472 1470 1469 1467 1466 1466 1465 1464 1464 1463 1464 1464 1464 1466 1468 1469 1471 1473 1475 1477 1479 1482 1483 1485 1486 1488 1491 1492 1493 1494
1493 1492 1493 1492 1487 1484 1481 1481 1480 1478 1477 1475 1473 1472 1470 1468 1466 1465 1464 1464 1463 1463 1463 1462 1461 1461 1462 1465 1465 1466 1468 1470 1472 1474 1476 1478 1480 1481 1483 1485 1487 1488 1489 1491
1489 1490 1491 1489 1484 1484 1480 1478 1477 1476 1474 1473 1471 1469 1468 1466 1464 1463 1463 1463 1463 1462 1462 1460 1460 1460 1461 1463 1464 1464 1465 1467 1470 1471 1473 1475 1476 1478 1480 1482 1484 1485 1486 1487